www.cux-wetter.de
Wetterdaten: Mittwoch, 03.08.2011
Datum Zeit Temp. A. Feuchte A. Luftdruck Regen Wind Richtung Richtung Sonnenschein Solar Taupunkt Windchill Windben
03.08.2011 17:45 25,8 C 62 % 1012,5 hPa 3,3 l/m 20,8 km/h (4 Bft) S-SO 155 0 min 0 W/m 18,0 C 23,6 C 20,8 km/h (4 Bft)
03.08.2011 18:00 25,5 C 63 % 1012,5 hPa 0,0 l/m 15,4 km/h (3 Bft) SO 140 0 min 0 W/m 17,9 C 23,9 C 15,4 km/h (3 Bft)
03.08.2011 18:15 25,2 C 64 % 1012,5 hPa 0,0 l/m 10,0 km/h (2 Bft) O-SO 110 0 min 0 W/m 17,9 C 24,4 C 10,0 km/h (2 Bft)
03.08.2011 18:30 24,5 C 65 % 1012,5 hPa 0,0 l/m 15,5 km/h (3 Bft) SO 135 0 min 0 W/m 17,5 C 22,6 C 15,5 km/h (3 Bft)
03.08.2011 18:45 24,0 C 66 % 1012,5 hPa 0,0 l/m 13,8 km/h (3 Bft) SO 125 0 min 0 W/m 17,2 C 22,3 C 13,8 km/h (3 Bft)
03.08.2011 19:00 23,9 C 68 % 1012,5 hPa 0,0 l/m 10,2 km/h (2 Bft) SO 145 0 min 0 W/m 17,6 C 22,9 C 10,2 km/h (2 Bft)
03.08.2011 19:15 23,6 C 68 % 1012,5 hPa 0,0 l/m 8,5 km/h (2 Bft) SO 130 0 min 0 W/m 17,3 C 23,0 C 8,5 km/h (2 Bft)
03.08.2011 19:30 23,5 C 68 % 1012,5 hPa 0,0 l/m 9,6 km/h (2 Bft) O 95 0 min 0 W/m 17,2 C 22,6 C 9,6 km/h (2 Bft)
03.08.2011 19:45 23,2 C 69 % 1012,5 hPa 0,0 l/m 8,9 km/h (2 Bft) O-SO 115 0 min 0 W/m 17,2 C 22,5 C 8,9 km/h (2 Bft)
03.08.2011 20:00 23,2 C 70 % 1012,5 hPa 0,0 l/m 11,3 km/h (2 Bft) SO 125 0 min 0 W/m 17,4 C 21,9 C 11,3 km/h (2 Bft)
03.08.2011 20:15 23,0 C 70 % 1012,5 hPa 0,0 l/m 13,2 km/h (3 Bft) SO 140 0 min 0 W/m 17,2 C 21,2 C 13,2 km/h (3 Bft)
03.08.2011 20:30 22,9 C 71 % 1011,5 hPa 0,0 l/m 12,6 km/h (3 Bft) O-SO 110 0 min 0 W/m 17,4 C 21,2 C 12,6 km/h (3 Bft)
03.08.2011 20:45 22,6 C 71 % 1011,5 hPa 0,0 l/m 16,1 km/h (3 Bft) SO 140 0 min 0 W/m 17,1 C 20,2 C 16,1 km/h (3 Bft)
03.08.2011 21:00 22,6 C 71 % 1012,5 hPa 0,0 l/m 11,8 km/h (2 Bft) SO 135 0 min 0 W/m 17,1 C 21,1 C 11,8 km/h (2 Bft)
03.08.2011 21:15 22,4 C 72 % 1011,5 hPa 0,0 l/m 18,1 km/h (3 Bft) S-SO 155 0 min 0 W/m 17,1 C 19,6 C 18,1 km/h (3 Bft)
03.08.2011 21:30 22,4 C 72 % 1011,5 hPa 0,0 l/m 15,0 km/h (3 Bft) S-SO 155 0 min 0 W/m 17,1 C 20,2 C 15,0 km/h (3 Bft)
03.08.2011 21:45 22,3 C 72 % 1012,5 hPa 0,0 l/m 17,1 km/h (3 Bft) SO 130 0 min 0 W/m 17,0 C 19,6 C 17,1 km/h (3 Bft)
03.08.2011 22:00 22,3 C 72 % 1011,5 hPa 0,0 l/m 16,5 km/h (3 Bft) O-SO 120 0 min 0 W/m 17,0 C 19,8 C 16,5 km/h (3 Bft)
03.08.2011 22:15 22,3 C 72 % 1011,5 hPa 0,0 l/m 15,8 km/h (3 Bft) S-SO 165 0 min 0 W/m 17,0 C 19,9 C 15,8 km/h (3 Bft)
03.08.2011 22:30 22,3 C 72 % 1012,5 hPa 0,0 l/m 17,1 km/h (3 Bft) S 185 0 min 0 W/m 17,0 C 19,6 C 17,1 km/h (3 Bft)
03.08.2011 22:45 22,0 C 76 % 1011,5 hPa 0,6 l/m 14,5 km/h (3 Bft) SO 130 0 min 0 W/m 17,6 C 19,8 C 14,5 km/h (3 Bft)
03.08.2011 23:00 21,4 C 78 % 1012,5 hPa 0,0 l/m 9,8 km/h (2 Bft) S-SO 150 0 min 0 W/m 17,4 C 20,2 C 9,8 km/h (2 Bft)
03.08.2011 23:15 21,1 C 80 % 1012,5 hPa 0,3 l/m 0,1 km/h (0 Bft) SW 215 0 min 0 W/m 17,5 C 21,1 C 0,1 km/h (0 Bft)
03.08.2011 23:30 20,9 C 81 % 1012,5 hPa 0,0 l/m 0,0 km/h (0 Bft) SW 215 0 min 0 W/m 17,5 C 20,9 C 0,0 km/h (0 Bft)
03.08.2011 23:45 20,7 C 83 % 1012,5 hPa 0,6 l/m 0,0 km/h (0 Bft) SW 215 0 min 0 W/m 17,7 C 20,7 C 0,0 km/h (0 Bft)
_ Min-Zeit 23:45 17:45 20:30 - 23:30 - - - - 21:45 21:15 23:30
Minimum _ 20,7 C 62 % 1011,5 hPa - 0,0 km/h (0 Bft) - - - - 17,0 C 19,6 C 0,0 km/h (0 Bft)
_ Max-Zeit 17:45 23:45 17:45 17:45 17:45 - - 17:45 17:45 17:45 18:15 17:45
Maximum _ 25,8 C 83 % 1012,5 hPa 3,3 l/m 20,8 km/h
S-SO (4 Bft)
- - 0 min 0 W/m 18,0 C 24,4 C 20,8 km/h
S-SO (4 Bft)
Durchschnitt _ 23,6 C 69 % 1012,3 hPa #4,8 l/m 14,0 km/h (3 Bft) SO - #0 min. 0 W/m 17,5 C 21,9 C 14,0 km/h (3 Bft)
copyright by Holger Just